{"data":{"norad_id":66898,"epoch":"2026-05-25T01:37:25.754880Z","epoch_age_seconds":62370,"freshness":"FRESH","line1":"1 66898U 25283W   26145.06765920  .00015710  00000+0  47506-3 0  9998","line2":"2 66898  53.1620  28.9959 0001147  88.4279 271.6855 15.34404158 27546","mean_motion":15.34404158,"eccentricity":0.0001147,"inclination_deg":53.162,"raan_deg":28.9959,"arg_perigee_deg":88.4279,"mean_anomaly_deg":271.6855,"bstar":0.00047506,"rev_number":2754,"period_min":93.8475037683,"perigee_km":461.90623882471,"apogee_km":463.47552474079,"semimajor_km":6840.8278817828,"source":"CELESTRAK","updated_at":"2026-05-25T13:38:21.382479Z"}}